User: anonymous   Login
Location: Nag� el Ma?a??a
(24.0667°N, 32.8833°E)
Time: 18:52:50
(UTC+00:00)
Language:

MOS 1 Rocket - Orbit

View from above orbital plane
View from above orbital plane
View from above satellite
View from above satellite

Ground track
Ground track

The orbit data is extracted from the following two-line orbital elements,

1 17528U 87018B   21340.57647441  .00000185  00000-0  49834-4 0  9991
2 17528  97.4269 132.4201 0150588 217.2074 141.8615 14.51109548816116
Epoch (UTC): 06 December 2021 13:50:07
Eccentricity: 0.0150588
inclination: 97.4269°
perigee height: 615 km
apogee height: 829 km
right ascension of ascending node: 132.4201°
argument of perigee: 217.2074°
revolutions per day: 14.51109548
mean anomaly at epoch: 141.8615°
orbit number at epoch: 81611

The dashed part of the orbit path shows where the satellite is in the earth's shadow,  

DLR